Location: Ladrillo (historical)
(32.8195°N, 117.2231°W)
Time: 17:00:50
(UTC+00:00)

Transit 4A - All Passes

Search period start: 26 February 2021 00:00
Search period end: 08 March 2021 00:00
Orbit: 866 x 978 km, 66.8° (Epoch: 25 February)

Date Brightness Start Highest point End Pass type
(mag) Time Alt. Az. Time Alt. Az. Time Alt. Az.
26 Feb - 03:57:47 10° N 04:03:17 36° ENE 04:08:37 10° SE visible
26 Feb - 05:44:26 10° NW 05:49:24 28° WSW 05:54:15 10° SSW visible
26 Feb - 17:16:06 10° SE 17:19:34 15° ESE 17:23:01 10° ENE daylight
26 Feb - 18:58:53 10° SSW 19:05:15 71° WNW 19:11:35 10° NNE daylight
26 Feb - 20:50:50 10° WNW 20:52:41 11° NW 20:54:32 10° NNW daylight
27 Feb - 04:06:49 10° NNW 04:12:42 56° ENE 04:18:25 10° SE visible
27 Feb - 05:54:45 10° WNW 05:58:27 17° WSW 06:02:06 10° SW visible
27 Feb - 17:23:38 10° SSE 17:28:38 24° ESE 17:33:35 10° NE daylight
27 Feb - 19:08:31 10° SW 19:14:38 47° WNW 19:20:43 10° NNE daylight
28 Feb - 02:32:20 10° NNE 02:34:48 13° NE 02:37:15 10° ENE visible
28 Feb - 04:16:01 10° NNW 04:22:02 86° ENE 04:27:52 10° SSE visible
28 Feb - 17:31:57 10° S 17:37:45 38° ESE 17:43:32 10° NE daylight
28 Feb - 19:18:31 10° WSW 19:24:06 32° WNW 19:29:41 10° N daylight
01 Mar - 02:40:22 10° N 02:44:31 19° NE 02:48:33 10° E visible
01 Mar - 04:25:25 10° NNW 04:31:16 60° WSW 04:36:59 10° S visible
01 Mar - 17:40:42 10° S 17:46:57 59° ESE 17:53:10 10° NE daylight
01 Mar - 19:28:55 10° W 19:33:40 22° NW 19:38:24 10° N daylight
02 Mar - 02:49:00 10° N 02:54:05 28° NE 02:59:02 10° ESE visible
02 Mar - 04:35:02 10° NW 04:40:27 38° WSW 04:45:45 10° S visible
02 Mar - 16:09:31 10° ESE 16:10:43 11° E 16:11:55 10° E daylight
02 Mar - 17:49:48 10° SSW 17:56:12 89° ESE 18:02:34 10° NNE daylight
02 Mar - 19:39:57 10° W 19:43:20 15° NW 19:46:43 10° NNW daylight
03 Mar - 02:57:56 10° NNW 03:03:34 42° ENE 03:09:04 10° SE visible
03 Mar - 04:44:58 10° NW 04:49:34 24° WSW 04:54:03 10° SSW visible
03 Mar - 16:15:36 10° SE 16:19:44 18° ESE 16:23:50 10° ENE daylight
03 Mar - 17:59:13 10° SW 18:05:33 61° WNW 18:11:48 10° NNE daylight
04 Mar - 03:07:01 10° NNW 03:12:58 65° ENE 03:18:44 10° SE visible
04 Mar - 04:55:37 10° WNW 04:58:35 14° WSW 05:01:32 10° SW visible
04 Mar - 16:23:28 10° SSE 16:28:49 29° ESE 16:34:07 10° NE daylight
04 Mar - 18:09:00 10° SW 18:14:57 40° WNW 18:20:52 10° N daylight
05 Mar - 01:32:01 10° NNE 01:35:12 14° NE 01:38:20 10° E daylight
05 Mar - 03:16:17 10° NNW 03:22:16 81° WSW 03:28:04 10° SSE visible
05 Mar - 16:31:58 10° S 16:37:58 44° ESE 16:43:56 10° NE daylight
05 Mar - 18:19:07 10° WSW 18:24:27 27° NW 18:29:45 10° N daylight
06 Mar - 01:40:21 10° N 01:44:52 22° NE 01:49:16 10° ESE daylight
06 Mar - 03:25:46 10° NW 03:31:29 51° WSW 03:37:04 10° S visible
06 Mar - 16:40:51 10° SSW 16:47:11 69° ESE 16:53:28 10° NNE daylight
06 Mar - 18:29:42 10° W 18:34:03 19° NW 18:38:21 10° N daylight
07 Mar - 01:49:06 10° N 01:54:25 32° ENE 01:59:35 10° ESE daylight
07 Mar - 03:35:28 10° NW 03:40:37 32° WSW 03:45:41 10° SSW visible
07 Mar - 15:08:08 10° SE 15:10:52 13° ESE 15:13:35 10° ENE daylight
07 Mar - 16:50:04 10° SSW 16:56:28 79° WNW 17:02:48 10° NNE daylight
07 Mar - 18:41:07 10° WNW 18:43:45 13° NW 18:46:22 10° NNW daylight
